,,Stat6,,Stat2,,Stat8,,Stat9,,Stat10,,Wind1,,Wind1,
time,status,PA1M_AVG,status,PR1M_SUM,status,RH1M_AVG,status,SR1M_AVG,status,TA1M_AVG,status,W1dAve1m,status,W1sAve1m,
2006-11-25, 07:00:01,VALID,918.131,VALID,0,VALID,100,VALID,0.0849042,VALID,19.8197,VALID,13,VALID,1.38935,
2006-11-25, 07:01:00,VALID,918.145,VALID,0,VALID,100,VALID,0.0509425,VALID,19.8549,VALID,338,VALID,0.464558,
2006-11-25, 07:02:00,VALID,918.145,VALID,0,VALID,100,VALID,0.0509425,VALID,19.8619,VALID,44,VALID,0.803711,
2006-11-25, 07:03:00,VALID,918.145,VALID,0,VALID,100,VALID,0.0339617,VALID,19.8527,VALID,72,VALID,1.06268,
2006-11-25, 07:04:00,VALID,918.113,VALID,0,VALID,100,VALID,0,VALID,19.8011,VALID,68,VALID,1.25651,
2006-11-25, 07:05:00,VALID,918.075,VALID,0,VALID,100,VALID,0.0339617,VALID,19.7787,VALID,64,VALID,1.00572,
2006-11-25, 07:06:00,VALID,918.068,VALID,0,VALID,100,VALID,0.0169808,VALID,19.7596,VALID,74,VALID,1.23456,
2006-11-25, 07:07:00,VALID,918.046,VALID,0,VALID,100,VALID,0,VALID,19.7432,VALID,67,VALID,0.898242,
2006-11-25, 07:08:00,VALID,918.024,VALID,0,VALID,100,VALID,0.0169808,VALID,19.7139,VALID,70,VALID,1.0122,
2006-11-25, 07:09:00,VALID,917.997,VALID,0,VALID,100,VALID,0,VALID,19.7112,VALID,67,VALID,0.628374,
2006-11-25, 07:10:00,VALID,917.982,VALID,0,VALID,100,VALID,0,VALID,19.7117,VALID,67,VALID,0.77439,
2006-11-25, 07:11:00,VALID,917.987,VALID,0,VALID,100,VALID,0,VALID,19.6985,VALID,74,VALID,0.884301,
2006-11-25, 07:12:00,VALID,917.968,VALID,0,VALID,100,VALID,0,VALID,19.6692,VALID,63,VALID,0.596112,
2006-11-25, 07:13:00,VALID,917.953,VALID,0,VALID,100,VALID,0,VALID,19.6692,VALID,73,VALID,0.648256,
2006-11-25, 07:14:00,VALID,917.952,VALID,0,VALID,100,VALID,0.0509425,VALID,19.6657,VALID,57,VALID,0.511009,
2006-11-25, 07:15:00,VALID,917.925,VALID,0,VALID,100,VALID,0.0169808,VALID,19.663,VALID,349,VALID,0.340745,
2006-11-25, 07:16:00,VALID,917.898,VALID,0,VALID,100,VALID,0,VALID,19.6695,VALID,343,VALID,0.292799,
2006-11-25, 07:17:00,VALID,917.876,VALID,0,VALID,100,VALID,0,VALID,19.663,VALID,348,VALID,0.166295,
2006-11-25, 07:18:00,VALID,917.891,VALID,0,VALID,100,VALID,0,VALID,19.6573,VALID,55,VALID,0.69837,
2006-11-25, 07:19:00,VALID,917.903,VALID,0,VALID,100,VALID,-0.101885,VALID,19.6325,VALID,71,VALID,0.96804,
2006-11-25, 07:20:00,VALID,917.907,VALID,0,VALID,100,VALID,-0.101885,VALID,19.6123,VALID,69,VALID,0.912109,
2006-11-25, 07:21:00,VALID,917.887,VALID,0,VALID,100,VALID,-0.118866,VALID,19.6034,VALID,69,VALID,0.401456,
2006-11-25, 07:22:00,VALID,917.87,VALID,0,VALID,100,VALID,-0.118866,VALID,19.5969,VALID,65,VALID,0.5,
2006-11-25, 07:23:00,VALID,917.846,VALID,0,VALID,100,VALID,-0.135847,VALID,19.5905,VALID,65,VALID,0.760938,
2006-11-25, 07:24:00,VALID,917.811,VALID,0,VALID,100,VALID,-0.118866,VALID,19.5612,VALID,74,VALID,0.66266,
2006-11-25, 07:25:00,VALID,917.798,VALID,0,VALID,100,VALID,-0.101885,VALID,19.5709,VALID,92,VALID,0.446733,
2006-11-25, 07:26:00,VALID,917.792,VALID,0,VALID,100,VALID,-0.101885,VALID,19.5706,VALID,63,VALID,1.13437,
2006-11-25, 07:27:00,VALID,917.763,VALID,0,VALID,100,VALID,-0.118866,VALID,19.5383,VALID,62,VALID,0.52468,
2006-11-25, 07:28:00,VALID,917.72,VALID,0,VALID,100,VALID,-0.101885,VALID,19.5292,VALID,66,VALID,0.355769,
2006-11-25, 07:29:00,VALID,917.677,VALID,0,VALID,100,VALID,-0.101885,VALID,19.5125,VALID,41,VALID,0.587754,
2006-11-25, 07:30:00,VALID,917.647,VALID,0,VALID,100,VALID,-0.101885,VALID,19.5128,VALID,53,VALID,1.13263,
2006-11-25, 07:31:00,VALID,917.608,VALID,0,VALID,100,VALID,-0.118866,VALID,19.5259,VALID,54,VALID,0.56978,
2006-11-25, 07:32:00,VALID,917.563,VALID,0,VALID,100,VALID,-0.0679233,VALID,19.5423,VALID,60,VALID,0.738181,
2006-11-25, 07:33:00,VALID,917.517,VALID,0,VALID,100,VALID,-0.0849042,VALID,19.5257,VALID,60,VALID,0.121652,
2006-11-25, 07:34:00,VALID,917.471,VALID,0,VALID,100,VALID,-0.0339617,VALID,19.5143,VALID,60,VALID,0.172408,
2006-11-25, 07:35:00,VALID,917.441,VALID,0,VALID,100,VALID,0,VALID,19.5118,VALID,59,VALID,0.208789,
2006-11-25, 07:36:00,VALID,917.426,VALID,0,VALID,100,VALID,0,VALID,19.4857,VALID,42,VALID,0.862805,
2006-11-25, 07:37:00,VALID,917.403,VALID,0,VALID,100,VALID,0,VALID,19.4887,VALID,44,VALID,0.426448,
2006-11-25, 07:38:00,VALID,917.361,VALID,0,VALID,100,VALID,0,VALID,19.4793,VALID,25,VALID,0.281059,
2006-11-25, 07:39:00,VALID,917.339,VALID,0,VALID,100,VALID,0,VALID,19.4864,VALID,24,VALID,0.536523,
2006-11-25, 07:40:00,VALID,917.305,VALID,0,VALID,100,VALID,0,VALID,19.4733,VALID,21,VALID,1.06702,
2006-11-25, 07:41:00,VALID,917.274,VALID,0,VALID,100,VALID,0,VALID,19.45,VALID,25,VALID,1.13451,
2006-11-25, 07:42:00,VALID,917.245,VALID,0,VALID,100,VALID,-0.0169808,VALID,19.4601,VALID,35,VALID,0.966654,
2006-11-25, 07:43:00,VALID,917.223,VALID,0,VALID,100,VALID,0.0169808,VALID,19.4599,VALID,36,VALID,1.29633,
2006-11-25, 07:44:00,VALID,917.219,VALID,0,VALID,100,VALID,0.0169808,VALID,19.4827,VALID,36,VALID,0.828303,
2006-11-25, 07:45:00,VALID,917.195,VALID,0,VALID,100,VALID,0,VALID,19.4954,VALID,22,VALID,1.28659,
2006-11-25, 07:46:00,VALID,917.175,VALID,0,VALID,100,VALID,0,VALID,19.4989,VALID,35,VALID,1.25999,
2006-11-25, 07:47:00,VALID,917.159,VALID,0,VALID,100,VALID,0,VALID,19.515,VALID,42,VALID,1.08371,
2006-11-25, 07:48:00,VALID,917.148,VALID,0,VALID,100,VALID,-0.0169808,VALID,19.512,VALID,50,VALID,1.35258,
2006-11-25, 07:49:00,VALID,917.125,VALID,0,VALID,100,VALID,0.0679233,VALID,19.5334,VALID,51,VALID,0.742188,
2006-11-25, 07:50:00,VALID,917.11,VALID,0,VALID,100,VALID,0.0849042,VALID,19.5138,VALID,39,VALID,0.925071,
2006-11-25, 07:51:00,VALID,917.098,VALID,0,VALID,100,VALID,0.101885,VALID,19.5039,VALID,22,VALID,0.930078,
2006-11-25, 07:52:00,VALID,917.066,VALID,0,VALID,100,VALID,0.101885,VALID,19.4934,VALID,38,VALID,1.20099,
2006-11-25, 07:53:00,VALID,917.035,VALID,0,VALID,100,VALID,0.101885,VALID,19.5011,VALID,51,VALID,1.20108,
2006-11-25, 07:54:00,VALID,917.033,VALID,0,VALID,100,VALID,0.101885,VALID,19.5039,VALID,13,VALID,1.41697,
2006-11-25, 07:55:00,VALID,917.017,VALID,0,VALID,100,VALID,0.0849042,VALID,19.5066,VALID,12,VALID,1.50874,
2006-11-25, 07:56:00,VALID,917.026,VALID,0,VALID,100,VALID,0.101885,VALID,19.5264,VALID,360,VALID,1.08469,
2006-11-25, 07:57:00,VALID,916.989,VALID,0,VALID,100,VALID,0.0849042,VALID,19.5428,VALID,10,VALID,0.755766,
2006-11-25, 07:58:00,VALID,916.976,VALID,0,VALID,100,VALID,0.101885,VALID,19.5329,VALID,10,VALID,1.27836,
2006-11-25, 07:59:00,VALID,916.961,VALID,0,VALID,100,VALID,0.0849042,VALID,19.5461,VALID,351,VALID,0.941584,
2006-11-25, 08:00:00,VALID,916.951,VALID,0,VALID,100,VALID,0.101885,VALID,19.5456,VALID,359,VALID,1.34073,
2006-11-25, 08:01:00,VALID,916.921,VALID,0,VALID,100,VALID,0.101885,VALID,19.556,VALID,349,VALID,1.19607,
2006-11-25, 08:02:00,VALID,916.867,VALID,0,VALID,100,VALID,0.118866,VALID,19.5528,VALID,10,VALID,1.05785,
2006-11-25, 08:03:00,VALID,916.83,VALID,0,VALID,100,VALID,0.0849042,VALID,19.5555,VALID,22,VALID,1.81957,
2006-11-25, 08:04:00,VALID,916.814,VALID,0,VALID,100,VALID,0,VALID,19.5734,VALID,8,VALID,1.3582,
2006-11-25, 08:05:00,VALID,916.772,VALID,0,VALID,100,VALID,0,VALID,19.6056,VALID,12,VALID,1.48819,
2006-11-25, 08:06:00,VALID,916.761,VALID,0,VALID,100,VALID,0,VALID,19.6153,VALID,35,VALID,1.24676,
2006-11-25, 08:07:00,VALID,916.738,VALID,0,VALID,100,VALID,0,VALID,19.6446,VALID,45,VALID,0.909108,
2006-11-25, 08:08:00,VALID,916.733,VALID,0,VALID,100,VALID,0,VALID,19.6508,VALID,27,VALID,0.997283,
2006-11-25, 08:09:00,VALID,916.719,VALID,0,VALID,100,VALID,0,VALID,19.6471,VALID,43,VALID,2.2218,
2006-11-25, 08:10:00,VALID,916.712,VALID,0,VALID,100,VALID,0,VALID,19.67,VALID,35,VALID,1.00195,
2006-11-25, 08:11:00,VALID,916.699,VALID,0,VALID,100,VALID,0,VALID,19.6637,VALID,40,VALID,1.47142,
2006-11-25, 08:12:00,VALID,916.686,VALID,0,VALID,100,VALID,-0.0169808,VALID,19.6737,VALID,43,VALID,1.36979,
2006-11-25, 08:13:00,VALID,916.664,VALID,0,VALID,100,VALID,0,VALID,19.6704,VALID,60,VALID,0.918064,
2006-11-25, 08:14:00,VALID,916.672,VALID,0,VALID,100,VALID,0,VALID,19.6469,VALID,46,VALID,0.897866,
2006-11-25, 08:15:00,VALID,916.671,VALID,0,VALID,100,VALID,0,VALID,19.6538,VALID,66,VALID,1.41243,
2006-11-25, 08:16:00,VALID,916.662,VALID,0,VALID,100,VALID,0,VALID,19.6608,VALID,68,VALID,0.724805,
2006-11-25, 08:17:00,VALID,916.664,VALID,0,VALID,100,VALID,0,VALID,19.6302,VALID,58,VALID,0.545856,
2006-11-25, 08:18:00,VALID,916.681,VALID,0,VALID,100,VALID,0,VALID,19.6538,VALID,65,VALID,0.223264,
2006-11-25, 08:19:00,VALID,916.688,VALID,0,VALID,100,VALID,0,VALID,19.631,VALID,42,VALID,1.57576,
2006-11-25, 08:20:00,VALID,916.696,VALID,0,VALID,100,VALID,-0.0169808,VALID,19.6411,VALID,53,VALID,1.86573,
2006-11-25, 08:21:00,VALID,916.681,VALID,0,VALID,100,VALID,0.0509425,VALID,19.6603,VALID,46,VALID,0.949609,
2006-11-25, 08:22:00,VALID,916.681,VALID,0,VALID,100,VALID,0,VALID,19.6635,VALID,46,VALID,0.605374,
2006-11-25, 08:23:00,VALID,916.667,VALID,0,VALID,100,VALID,0.0169808,VALID,19.6637,VALID,67,VALID,0.968403,
2006-11-25, 08:24:00,VALID,916.67,VALID,0,VALID,100,VALID,0,VALID,19.6444,VALID,53,VALID,0.775391,
2006-11-25, 08:25:00,VALID,916.666,VALID,0,VALID,100,VALID,0,VALID,19.6342,VALID,72,VALID,1.14234,
2006-11-25, 08:26:00,VALID,916.658,VALID,0,VALID,100,VALID,0,VALID,19.6312,VALID,64,VALID,0.567951,
2006-11-25, 08:27:00,VALID,916.65,VALID,0,VALID,100,VALID,0,VALID,19.6347,VALID,22,VALID,0.842842,
2006-11-25, 08:28:00,VALID,916.653,VALID,0,VALID,100,VALID,0,VALID,19.6181,VALID,24,VALID,0.396701,
2006-11-25, 08:29:00,VALID,916.653,VALID,0,VALID,100,VALID,0.0169808,VALID,19.6218,VALID,20,VALID,0.486861,
2006-11-25, 08:30:00,VALID,916.632,VALID,0,VALID,100,VALID,0,VALID,19.6022,VALID,22,VALID,0.748857,
2006-11-25, 08:31:00,VALID,916.604,VALID,0,VALID,100,VALID,0.0169808,VALID,19.6059,VALID,28,VALID,0.716082,
2006-11-25, 08:32:00,VALID,916.587,VALID,0,VALID,100,VALID,-0.0169808,VALID,19.6089,VALID,32,VALID,0.443859,
2006-11-25, 08:33:00,VALID,916.568,VALID,0,VALID,100,VALID,0,VALID,19.6024,VALID,47,VALID,0.725142,
2006-11-25, 08:34:00,VALID,916.552,VALID,0,VALID,100,VALID,-0.0339617,VALID,19.6282,VALID,26,VALID,1.31559,
2006-11-25, 08:35:00,VALID,916.531,VALID,0,VALID,100,VALID,-0.0169808,VALID,19.6508,VALID,26,VALID,1.12969,
2006-11-25, 08:36:00,VALID,916.507,VALID,0,VALID,99.9941,VALID,-0.0339617,VALID,19.6772,VALID,16,VALID,0.912348,
2006-11-25, 08:37:00,VALID,916.46,VALID,0,VALID,99.8591,VALID,0,VALID,19.6933,VALID,346,VALID,0.981712,
2006-11-25, 08:38:00,VALID,916.436,VALID,0,VALID,99.7955,VALID,-0.0339617,VALID,19.6995,VALID,322,VALID,0.69992,
2006-11-25, 08:39:00,VALID,916.417,VALID,0,VALID,99.7205,VALID,0,VALID,19.6767,VALID,346,VALID,1.07584,
2006-11-25, 08:40:00,VALID,916.389,VALID,0,VALID,99.7269,VALID,0,VALID,19.6739,VALID,316,VALID,1.30007,
2006-11-25, 08:41:00,VALID,916.364,VALID,0,VALID,99.6455,VALID,-0.0339617,VALID,19.6546,VALID,328,VALID,1.49038,
2006-11-25, 08:42:00,VALID,916.35,VALID,0,VALID,99.5437,VALID,0,VALID,19.6416,VALID,313,VALID,1.53524,
2006-11-25, 08:43:00,VALID,916.337,VALID,0,VALID,99.4611,VALID,-0.0339617,VALID,19.6285,VALID,321,VALID,1.6468,
2006-11-25, 08:44:00,VALID,916.31,VALID,0,VALID,99.4802,VALID,-0.0169808,VALID,19.6379,VALID,320,VALID,2.0375,
2006-11-25, 08:45:00,VALID,916.319,VALID,0,VALID,99.3085,VALID,0,VALID,19.6479,VALID,319,VALID,1.97321,
2006-11-25, 08:46:00,VALID,916.317,VALID,0,VALID,99.1356,VALID,0,VALID,19.6704,VALID,316,VALID,1.80749,
2006-11-25, 08:47:00,VALID,916.281,VALID,0,VALID,99.0224,VALID,0,VALID,19.6863,VALID,309,VALID,2.65052,
2006-11-25, 08:48:00,VALID,916.287,VALID,0,VALID,98.8927,VALID,0,VALID,19.7218,VALID,315,VALID,2.03622,
2006-11-25, 08:49:00,VALID,916.283,VALID,0,VALID,98.721,VALID,0.0169808,VALID,19.7442,VALID,326,VALID,2.36381,
2006-11-25, 08:50:00,VALID,916.276,VALID,0,VALID,98.5646,VALID,0,VALID,19.7636,VALID,320,VALID,2.41879,
2006-11-25, 08:51:00,VALID,916.274,VALID,0,VALID,98.4324,VALID,-0.0509425,VALID,19.7867,VALID,321,VALID,2.05692,
2006-11-25, 08:52:00,VALID,916.264,VALID,0,VALID,98.3713,VALID,0,VALID,19.7993,VALID,344,VALID,1.49805,
2006-11-25, 08:53:00,VALID,916.263,VALID,0,VALID,98.3039,VALID,0,VALID,19.7931,VALID,353,VALID,2.09583,
2006-11-25, 08:54:00,VALID,916.255,VALID,0,VALID,98.2124,VALID,-0.0169808,VALID,19.8093,VALID,358,VALID,1.40625,
2006-11-25, 08:55:00,VALID,916.25,VALID,0,VALID,98.0992,VALID,0,VALID,19.8125,VALID,360,VALID,1.84996,
2006-11-25, 08:56:00,VALID,916.241,VALID,0,VALID,98.0064,VALID,0,VALID,19.8279,VALID,23,VALID,1.47828,
2006-11-25, 08:57:00,VALID,916.247,VALID,0,VALID,97.9746,VALID,0,VALID,19.8445,VALID,25,VALID,1.14281,
2006-11-25, 08:58:00,VALID,916.224,VALID,0,VALID,97.8576,VALID,-0.0169808,VALID,19.844,VALID,13,VALID,1.83535,
2006-11-25, 08:59:00,VALID,916.222,VALID,0,VALID,97.7978,VALID,-0.0169808,VALID,19.854,VALID,21,VALID,1.54353,
2006-11-25, 09:00:00,VALID,916.209,VALID,0,VALID,97.7851,VALID,0,VALID,19.8579,VALID,4,VALID,1.46205,
2006-11-25, 09:01:00,VALID,916.2,VALID,0,VALID,97.8792,VALID,-0.0339617,VALID,19.851,VALID,32,VALID,1.27121,
2006-11-25, 09:02:00,VALID,916.167,VALID,0,VALID,97.7775,VALID,-0.0169808,VALID,19.8408,VALID,24,VALID,1.14993,
2006-11-25, 09:03:00,VALID,916.168,VALID,0,VALID,97.7559,VALID,0,VALID,19.8607,VALID,334,VALID,0.666606,
2006-11-25, 09:04:00,VALID,916.15,VALID,0,VALID,97.7457,VALID,0,VALID,19.8574,VALID,334,VALID,0.418241,
2006-11-25, 09:05:00,VALID,916.146,VALID,0,VALID,97.7457,VALID,0,VALID,19.8311,VALID,54,VALID,0.825945,
2006-11-25, 09:06:00,VALID,916.154,VALID,0,VALID,97.7101,VALID,0,VALID,19.8252,VALID,38,VALID,1.11545,
2006-11-25, 09:07:00,VALID,916.157,VALID,0,VALID,97.7241,VALID,0,VALID,19.8252,VALID,6,VALID,0.633507,
2006-11-25, 09:08:00,VALID,916.118,VALID,0,VALID,97.719,VALID,0,VALID,19.8063,VALID,38,VALID,1.06114,
2006-11-25, 09:09:00,VALID,916.109,VALID,0,VALID,97.7584,VALID,-0.0339617,VALID,19.7899,VALID,47,VALID,0.575521,
2006-11-25, 09:10:00,VALID,916.101,VALID,0,VALID,97.7902,VALID,0,VALID,19.7797,VALID,21,VALID,0.857329,
2006-11-25, 09:11:00,VALID,916.086,VALID,0,VALID,97.8334,VALID,-0.0169808,VALID,19.7569,VALID,43,VALID,0.455357,
2006-11-25, 09:12:00,VALID,916.094,VALID,0,VALID,97.9237,VALID,0,VALID,19.7343,VALID,41,VALID,0.585029,
2006-11-25, 09:13:00,VALID,916.096,VALID,0,VALID,98.0674,VALID,0,VALID,19.7184,VALID,30,VALID,0.253906,
2006-11-25, 09:14:00,VALID,916.083,VALID,0,VALID,98.1615,VALID,-0.0169808,VALID,19.696,VALID,51,VALID,0.694169,
2006-11-25, 09:15:00,VALID,916.065,VALID,0,VALID,98.2696,VALID,0.0169808,VALID,19.6834,VALID,40,VALID,0.665737,
2006-11-25, 09:16:00,VALID,916.035,VALID,0,VALID,98.281,VALID,-0.0169808,VALID,19.6702,VALID,15,VALID,0.609189,
2006-11-25, 09:17:00,VALID,916.015,VALID,0,VALID,98.3116,VALID,0,VALID,19.6642,VALID,38,VALID,0.765253,
2006-11-25, 09:18:00,VALID,915.985,VALID,0,VALID,98.2989,VALID,0,VALID,19.6481,VALID,33,VALID,0.32431,
2006-11-25, 09:19:00,VALID,915.959,VALID,0,VALID,98.3434,VALID,0,VALID,19.6441,VALID,353,VALID,0.485518,
2006-11-25, 09:20:00,VALID,915.943,VALID,0,VALID,98.323,VALID,-0.0169808,VALID,19.6317,VALID,338,VALID,0.868331,
2006-11-25, 09:21:00,VALID,915.927,VALID,0,VALID,98.3853,VALID,0,VALID,19.6024,VALID,336,VALID,0.623512,
2006-11-25, 09:22:00,VALID,915.917,VALID,0,VALID,98.5786,VALID,-0.0169808,VALID,19.5801,VALID,338,VALID,0.593164,
2006-11-25, 09:23:00,VALID,915.895,VALID,0,VALID,98.6816,VALID,-0.0169808,VALID,19.5637,VALID,351,VALID,0.820833,
2006-11-25, 09:24:00,VALID,915.873,VALID,0,VALID,98.6613,VALID,0,VALID,19.5766,VALID,14,VALID,1.17111,
2006-11-25, 09:25:00,VALID,915.846,VALID,0,VALID,98.5074,VALID,0.0169808,VALID,19.6131,VALID,23,VALID,1.0307,
2006-11-25, 09:26:00,VALID,915.813,VALID,0,VALID,98.3332,VALID,0,VALID,19.6126,VALID,22,VALID,1.30011,
2006-11-25, 09:27:00,VALID,915.779,VALID,0,VALID,98.1183,VALID,0,VALID,19.6255,VALID,18,VALID,1.29936,
2006-11-25, 09:28:00,VALID,915.752,VALID,0,VALID,97.9174,VALID,0,VALID,19.6379,VALID,8,VALID,1.06613,
2006-11-25, 09:29:00,VALID,915.723,VALID,0,VALID,97.8385,VALID,0.0339617,VALID,19.6605,VALID,338,VALID,1.02306,
2006-11-25, 09:30:00,VALID,915.678,VALID,0,VALID,97.7088,VALID,0,VALID,19.6541,VALID,338,VALID,1.30899,
2006-11-25, 09:31:00,VALID,915.651,VALID,0,VALID,97.6058,VALID,0,VALID,19.661,VALID,337,VALID,1.51835,
2006-11-25, 09:32:00,VALID,915.615,VALID,0,VALID,97.4367,VALID,0,VALID,19.6541,VALID,328,VALID,1.65568,
2006-11-25, 09:33:00,VALID,915.582,VALID,0,VALID,97.2536,VALID,0.0169808,VALID,19.6575,VALID,316,VALID,1.9256,
2006-11-25, 09:34:00,VALID,915.555,VALID,0,VALID,97.2701,VALID,-0.0169808,VALID,19.6513,VALID,311,VALID,1.87214,
2006-11-25, 09:35:00,VALID,915.515,VALID,0,VALID,97.3223,VALID,-0.0169808,VALID,19.6121,VALID,321,VALID,2.00509,
2006-11-25, 09:36:00,VALID,915.492,VALID,0,VALID,97.2002,VALID,0,VALID,19.6123,VALID,309,VALID,1.87195,
2006-11-25, 09:37:00,VALID,915.477,VALID,0,VALID,97.0476,VALID,0,VALID,19.6255,VALID,304,VALID,1.78852,
2006-11-25, 09:38:00,VALID,915.451,VALID,0,VALID,96.9026,VALID,0,VALID,19.6511,VALID,317,VALID,1.7673,
2006-11-25, 09:39:00,VALID,915.433,VALID,0,VALID,96.8073,VALID,0,VALID,19.6704,VALID,310,VALID,1.43448,
2006-11-25, 09:40:00,VALID,915.417,VALID,0,VALID,96.7577,VALID,0.0169808,VALID,19.6737,VALID,309,VALID,1.498,
2006-11-25, 09:41:00,VALID,915.415,VALID,0,VALID,96.6826,VALID,0,VALID,19.6871,VALID,306,VALID,0.617374,
2006-11-25, 09:42:00,VALID,915.424,VALID,0,VALID,96.7157,VALID,0,VALID,19.6727,VALID,337,VALID,0.578852,
2006-11-25, 09:43:00,VALID,915.426,VALID,0,VALID,96.6381,VALID,0.0169808,VALID,19.6767,VALID,33,VALID,0.877548,
2006-11-25, 09:44:00,VALID,915.41,VALID,0,VALID,96.6191,VALID,-0.0169808,VALID,19.6834,VALID,43,VALID,1.02951,
2006-11-25, 09:45:00,VALID,915.395,VALID,0,VALID,96.6572,VALID,0,VALID,19.6993,VALID,60,VALID,0.3625,
2006-11-25, 09:46:00,VALID,915.373,VALID,0,VALID,96.6928,VALID,-0.0509425,VALID,19.7057,VALID,20,VALID,0.565476,
2006-11-25, 09:47:00,VALID,915.342,VALID,0,VALID,96.7526,VALID,0.0169808,VALID,19.7159,VALID,352,VALID,0.0336277,
2006-11-25, 09:48:00,VALID,915.342,VALID,0,VALID,96.8568,VALID,0,VALID,19.7092,VALID,351,VALID,0.23331,
2006-11-25, 09:49:00,VALID,915.335,VALID,0,VALID,97.012,VALID,0,VALID,19.706,VALID,349,VALID,0.314546,
2006-11-25, 09:50:00,VALID,915.319,VALID,0,VALID,97.0946,VALID,0,VALID,19.6734,VALID,306,VALID,0.844113,
2006-11-25, 09:51:00,VALID,915.288,VALID,0,VALID,97.2867,VALID,-0.0169808,VALID,19.6479,VALID,286,VALID,0.71875,
2006-11-25, 09:52:00,VALID,915.266,VALID,0,VALID,97.5473,VALID,0.0169808,VALID,19.6223,VALID,282,VALID,0.782366,
2006-11-25, 09:53:00,VALID,915.243,VALID,0,VALID,97.7699,VALID,0,VALID,19.593,VALID,301,VALID,0.823742,
2006-11-25, 09:54:00,VALID,915.233,VALID,0,VALID,97.8741,VALID,0.0339617,VALID,19.5766,VALID,322,VALID,0.524581,
2006-11-25, 09:55:00,VALID,915.215,VALID,0,VALID,97.8627,VALID,0.0169808,VALID,19.5542,VALID,340,VALID,0.424293,
2006-11-25, 09:56:00,VALID,915.185,VALID,0,VALID,97.9504,VALID,0.0679233,VALID,19.512,VALID,340,VALID,0.00944767,
2006-11-25, 09:57:00,VALID,915.165,VALID,0,VALID,98.0916,VALID,0.0679233,VALID,19.4822,VALID,332,VALID,0.235491,
2006-11-25, 09:58:00,VALID,915.143,VALID,0,VALID,98.2556,VALID,0.0339617,VALID,19.4537,VALID,332,VALID,0.0976563,
2006-11-25, 09:59:00,VALID,915.132,VALID,0,VALID,98.3815,VALID,0.0339617,VALID,19.438,VALID,332,VALID,0,
2006-11-25, 10:00:00,VALID,915.112,VALID,0,VALID,98.5557,VALID,0.0509425,VALID,19.4271,VALID,332,VALID,0.0340278,
2006-11-25, 10:01:00,VALID,915.108,VALID,0,VALID,98.7299,VALID,0.0509425,VALID,19.4276,VALID,324,VALID,0.215924,
2006-11-25, 10:02:00,VALID,915.084,VALID,0,VALID,98.7465,VALID,0.0169808,VALID,19.4241,VALID,324,VALID,0.161222,
2006-11-25, 10:03:00,VALID,915.066,VALID,0,VALID,98.7566,VALID,0.0509425,VALID,19.4368,VALID,337,VALID,0.555043,
2006-11-25, 10:04:00,VALID,915.053,VALID,0,VALID,98.5761,VALID,-0.0679233,VALID,19.4807,VALID,70,VALID,0.683689,
2006-11-25, 10:05:00,VALID,915.062,VALID,0,VALID,98.3027,VALID,-0.0509425,VALID,19.5259,VALID,98,VALID,0.5,
2006-11-25, 10:06:00,VALID,915.067,VALID,0,VALID,98.0471,VALID,-0.0679233,VALID,19.5388,VALID,51,VALID,0.809775,
2006-11-25, 10:07:00,VALID,915.077,VALID,0,VALID,98.0649,VALID,-0.0679233,VALID,19.5234,VALID,45,VALID,0.484003,
2006-11-25, 10:08:01,VALID,915.057,VALID,0,VALID,98.1882,VALID,-0.0509425,VALID,19.5006,VALID,54,VALID,1.04913,
2006-11-25, 10:09:00,VALID,915.04,VALID,0,VALID,98.2035,VALID,-0.0679233,VALID,19.5006,VALID,62,VALID,0.898438,
2006-11-25, 10:10:00,VALID,915.033,VALID,0,VALID,98.1666,VALID,-0.0849042,VALID,19.517,VALID,64,VALID,0.635231,
2006-11-25, 10:11:00,VALID,915.018,VALID,0,VALID,98.0865,VALID,-0.101885,VALID,19.5331,VALID,41,VALID,1.09261,
2006-11-25, 10:12:01,VALID,915.036,VALID,0,VALID,97.9517,VALID,-0.101885,VALID,19.5619,VALID,26,VALID,0.891197,
2006-11-25, 10:13:00,VALID,915.044,VALID,0,VALID,97.8106,VALID,-0.101885,VALID,19.5783,VALID,30,VALID,1.26124,
2006-11-25, 10:14:00,VALID,915.045,VALID,0,VALID,97.6643,VALID,-0.0679233,VALID,19.5877,VALID,25,VALID,1.72752,
2006-11-25, 10:15:00,VALID,915.054,VALID,0,VALID,97.5842,VALID,-0.0849042,VALID,19.5947,VALID,19,VALID,1.50341,
2006-11-25, 10:16:00,VALID,915.052,VALID,0,VALID,97.5105,VALID,-0.0169808,VALID,19.6136,VALID,27,VALID,0.991406,
2006-11-25, 10:17:01,VALID,915.04,VALID,0,VALID,97.4825,VALID,-0.0679233,VALID,19.5977,VALID,23,VALID,1.25186,
2006-11-25, 10:18:01,VALID,915.041,VALID,0,VALID,97.3655,VALID,-0.0849042,VALID,19.6071,VALID,50,VALID,1.33705,
2006-11-25, 10:19:00,VALID,915.024,VALID,0,VALID,97.232,VALID,-0.101885,VALID,19.6233,VALID,58,VALID,1.31055,
2006-11-25, 10:20:00,VALID,915.013,VALID,0,VALID,97.1836,VALID,-0.0849042,VALID,19.6396,VALID,67,VALID,1.23385,
2006-11-25, 10:21:00,VALID,915.022,VALID,0,VALID,97.2269,VALID,-0.0849042,VALID,19.6099,VALID,79,VALID,1.32969,
2006-11-25, 10:22:00,VALID,915.031,VALID,0,VALID,97.3769,VALID,-0.0849042,VALID,19.5974,VALID,65,VALID,1.23726,
2006-11-25, 10:23:01,VALID,915.022,VALID,0,VALID,97.4303,VALID,-0.101885,VALID,19.5915,VALID,68,VALID,1.39684,
2006-11-25, 10:24:00,VALID,915.022,VALID,0,VALID,97.5003,VALID,-0.0849042,VALID,19.5622,VALID,69,VALID,1.36998,
2006-11-25, 10:25:01,VALID,915.008,VALID,0,VALID,97.555,VALID,-0.101885,VALID,19.5334,VALID,63,VALID,1.30983,
2006-11-25, 10:26:00,VALID,914.988,VALID,0,VALID,97.663,VALID,-0.101885,VALID,19.5204,VALID,53,VALID,0.791211,
2006-11-25, 10:27:01,VALID,914.965,VALID,0,VALID,97.7343,VALID,-0.101885,VALID,19.5041,VALID,46,VALID,0.698946,
2006-11-25, 10:28:00,VALID,914.954,VALID,0,VALID,97.7571,VALID,-0.0849042,VALID,19.4844,VALID,67,VALID,1.43941,
2006-11-25, 10:29:00,VALID,914.947,VALID,0,VALID,97.761,VALID,-0.101885,VALID,19.4879,VALID,79,VALID,0.884615,
2006-11-25, 10:30:00,VALID,914.972,VALID,0,VALID,97.7279,VALID,-0.101885,VALID,19.5073,VALID,62,VALID,1.14135,
2006-11-25, 10:31:00,VALID,914.986,VALID,0,VALID,97.6758,VALID,-0.101885,VALID,19.4971,VALID,63,VALID,0.790879,
2006-11-25, 10:32:00,VALID,915.003,VALID,0,VALID,97.6834,VALID,-0.0679233,VALID,19.5008,VALID,61,VALID,0.600497,
2006-11-25, 10:33:00,VALID,914.996,VALID,0,VALID,97.7826,VALID,-0.0509425,VALID,19.4847,VALID,51,VALID,1.17827,
2006-11-25, 10:34:00,VALID,915,VALID,0,VALID,97.9021,VALID,0,VALID,19.4673,VALID,59,VALID,1.25953,
2006-11-25, 10:35:00,VALID,914.99,VALID,0,VALID,97.8767,VALID,-0.0169808,VALID,19.4507,VALID,57,VALID,0.834635,
2006-11-25, 10:36:01,VALID,914.977,VALID,0,VALID,97.8156,VALID,0,VALID,19.4663,VALID,59,VALID,0.826823,
2006-11-25, 10:37:00,VALID,914.949,VALID,0,VALID,97.8169,VALID,0.0169808,VALID,19.4735,VALID,69,VALID,1.21522,
2006-11-25, 10:38:01,VALID,914.926,VALID,0,VALID,97.8411,VALID,0,VALID,19.4698,VALID,62,VALID,0.728871,
2006-11-25, 10:39:01,VALID,914.918,VALID,0,VALID,97.8563,VALID,0,VALID,19.4475,VALID,65,VALID,0.505394,
2006-11-25, 10:40:00,VALID,914.906,VALID,0,VALID,97.925,VALID,0,VALID,19.4281,VALID,65,VALID,0.758575,